Location: Mohawk View
(42.7837°N, 73.7885°W)
Time: 13:06:33
(UTC+00:00)

Iridium 2 - Pass Details

Date: 17 June 2021
Orbit: 502 x 512 km, 85.5° (Epoch: 26 July)

Event Time Altitude Azimuth Distance (km) Brightness Sun altitude
Exits shadow 04:06:57 73° 306° (NW) 536 3.7 -22.9°
Drops below altitude 10° 04:10:32 10° 1° (N) 1,728 7.4 -23.0°
Sets 04:12:40 0° 3° (N) 2,616 8.6 -23.1°
